This is the latest recevied weather packets stored in our database for station/object W4SNA-2. If no packets are shown the sender has not sent any weather packets the latest 10 day(s).
| Time | Temp. | Humidity | Pressure | Rain* | Wind** | Luminosity | Snow |
|---|---|---|---|---|---|---|---|
| 1777847750 | 14.44° C | 35% | 1016.4 hPa | 0 mm | - | - | - |
| 1777847452 | 14.44° C | 35% | 1016.4 hPa | 0 mm | - | - | - |
| 1777847150 | 14.44° C | 35% | 1016.5 hPa | 0 mm | - | - | - |
| 1777846852 | 14.44° C | 34% | 1016.5 hPa | 0 mm | - | - | - |
| 1777846551 | 14.44° C | 34% | 1016.6 hPa | 0 mm | - | - | - |
| 1777846251 | 14.44° C | 34% | 1016.6 hPa | 0 mm | - | - | - |
| 1777845950 | 14.44° C | 35% | 1016.7 hPa | 0 mm | - | - | - |
| 1777845652 | 14.44° C | 35% | 1016.8 hPa | 0 mm | - | - | - |
| 1777845350 | 15° C | 34% | 1016.8 hPa | 0 mm | - | - | - |
| 1777845054 | 15° C | 36% | 1016.9 hPa | 0 mm | - | - | - |
| 1777844138 | 15° C | 33% | 1017 hPa | 0 mm | - | - | - |
| 1777843838 | 15° C | 36% | 1017 hPa | 0 mm | - | - | - |
| 1777843537 | 15° C | 32% | 1017.1 hPa | 0 mm | - | - | - |
| 1777843237 | 15° C | 33% | 1017.1 hPa | 0 mm | - | - | - |
| 1777842938 | 15.56° C | 33% | 1017.2 hPa | 0 mm | - | - | - |
| 1777842638 | 16.11° C | 32% | 1017.2 hPa | 0 mm | - | - | - |
| 1777842343 | 16.11° C | 33% | 1017.2 hPa | 0 mm | - | - | - |
| 1777842037 | 15.56° C | 34% | 1017.3 hPa | 0 mm | - | - | - |
| 1777841737 | 15.56° C | 33% | 1017.2 hPa | 0 mm | - | - | - |
| 1777841437 | 15.56° C | 35% | 1017.3 hPa | 0 mm | - | - | - |
| 1777841137 | 15.56° C | 34% | 1017.3 hPa | 0 mm | - | - | - |
| 1777840837 | 15.56° C | 33% | 1017.3 hPa | 0 mm | - | - | - |
| 1777840538 | 16.11° C | 34% | 1017.3 hPa | 0 mm | - | - | - |
| 1777840237 | 16.11° C | 33% | 1017.5 hPa | 0 mm | - | - | - |
| 1777839938 | 16.11° C | 34% | 1017.4 hPa | 0 mm | - | - | - |
* Rain latest hour (hover to see other rain measurements)
** Current wind speed in m/s (hover to see current wind gust speed)